Weather History for Volkel, Netherlands

Change the Weather History Date:

Thursday, October 31, 2013

  Actual Average Record
Temperature  
Mean Temperature 50 °F -  
Max Temperature 57 °F 47 °F 68 °F (2005)
Min Temperature 42 °F 35 °F 33 °F (1997)
Degree Days  
Heating Degree Days 16    
Moisture  
Dew Point 43 °F    
Average Humidity 79    
Maximum Humidity 93    
Minimum Humidity 63    
Precipitation  
Precipitation 0.00 in - - ()
Sea Level Pressure  
Sea Level Pressure 30.13 in    
Wind  
Wind Speed 10 mph ()    
Max Wind Speed 17 mph    
Max Gust Speed -    
Visibility 6.2 miles    
Events      
Averages and records for this station are not official NWS values.
T = Trace of Precipitation, MM = Missing Value Source: Averaged Metar Reports

Daily Weather History Graph

Daily Weather History Graph

Search for Another Location

Airport:

Trip Planner

Search our weather history database for the weather conditions in past years. The results will help you decide how hot, cold, wet, or windy it might be!

Date:

Astronomy

Oct. 31, 2013 Rise Set
Actual Time 7:29 AM CET 5:11 PM CET
Civil Twilight 6:54 AM CET 5:46 PM CET
Nautical Twilight 6:14 AM CET 6:26 PM CET
Astronomical Twilight 5:35 AM CET 7:04 PM CET
Moon 3:40 AM CET (10/31) 3:39 PM CET (10/31)
Length of Visible Light 10h 52m
Length of Day
9h 41m
Waning Crescent, 11% of the Moon is Illuminated
Oct 31
Waning Crescent
Nov 3
New
Nov 10
First Quarter
Nov 17
Full
Nov 25
Last Quarter

Hourly Weather History & Observations

Time (CET) Temp. Windchill Dew Point Humidity Pressure Visibility Wind Dir Wind Speed Gust Speed Precip Events Conditions
12:25 AM 44.6 °F 39.7 °F 41.0 °F 87% 30.24 in 6.2 mi South 9.2 mph - N/A   Unknown
12:55 AM 44.6 °F 39.2 °F 41.0 °F 87% 30.24 in 6.2 mi South 10.4 mph - N/A   Unknown
1:25 AM 44.6 °F 39.7 °F 41.0 °F 87% 30.24 in 6.2 mi SSW 9.2 mph - N/A   Unknown
1:55 AM 42.8 °F 38.0 °F 41.0 °F 93% 30.24 in 6.2 mi South 8.1 mph - N/A   Unknown
2:25 AM 42.8 °F 38.0 °F 41.0 °F 93% 30.24 in 6.2 mi South 8.1 mph - N/A   Unknown
2:55 AM 42.8 °F 38.0 °F 41.0 °F 93% 30.24 in 6.2 mi South 8.1 mph - N/A   Unknown
3:25 AM 42.8 °F 38.0 °F 41.0 °F 93% 30.21 in 6.2 mi South 8.1 mph - N/A   Unknown
3:55 AM 42.8 °F 38.0 °F 41.0 °F 93% 30.21 in 6.2 mi South 8.1 mph - N/A   Unknown
4:25 AM 42.8 °F 38.0 °F 41.0 °F 93% 30.21 in 6.2 mi South 8.1 mph - N/A   Unknown
4:55 AM 42.8 °F 38.0 °F 39.2 °F 87% 30.21 in 6.2 mi South 8.1 mph - N/A   Unknown
5:25 AM 42.8 °F 37.5 °F 41.0 °F 93% 30.21 in 6.2 mi South 9.2 mph - N/A   Unknown
5:55 AM 42.8 °F 38.0 °F 39.2 °F 87% 30.21 in 6.2 mi South 8.1 mph - N/A   Unknown
6:25 AM 42.8 °F 38.6 °F 41.0 °F 93% 30.21 in 6.2 mi South 6.9 mph - N/A   Unknown
6:55 AM 42.8 °F 38.0 °F 41.0 °F 93% 30.18 in 6.2 mi South 8.1 mph - N/A   Unknown
7:25 AM 42.8 °F 38.0 °F 41.0 °F 93% 30.18 in 6.2 mi South 8.1 mph - N/A   Unknown
7:55 AM 42.8 °F 37.5 °F 41.0 °F 93% 30.18 in 6.2 mi South 9.2 mph - N/A   Unknown
8:25 AM 44.6 °F 39.7 °F 41.0 °F 87% 30.18 in 6.2 mi South 9.2 mph - N/A   Unknown
8:55 AM 46.4 °F 41.1 °F 42.8 °F 87% 30.18 in 6.2 mi SSW 11.5 mph - N/A   Unknown
9:25 AM 46.4 °F 40.4 °F 42.8 °F 87% 30.18 in 6.2 mi South 13.8 mph - N/A   Scattered Clouds
9:55 AM 48.2 °F - 42.8 °F 82% 30.18 in 6.2 mi SSW 13.8 mph - N/A   Unknown
10:25 AM 50.0 °F - 44.6 °F 82% 30.18 in 6.2 mi South 12.7 mph - N/A   Unknown
10:55 AM 51.8 °F - 44.6 °F 76% 30.18 in 6.2 mi South 13.8 mph - N/A   Unknown
11:25 AM 51.8 °F - 44.6 °F 76% 30.18 in 6.2 mi SSW 13.8 mph - N/A   Partly Cloudy
11:55 AM 53.6 °F - 44.6 °F 72% 30.15 in 6.2 mi South 15.0 mph - N/A   Unknown
12:25 PM 53.6 °F - 44.6 °F 72% 30.15 in 6.2 mi SSW 16.1 mph - N/A   Unknown
12:55 PM 55.4 °F - 46.4 °F 72% 30.15 in 6.2 mi SSW 15.0 mph - N/A   Partly Cloudy
1:25 PM 55.4 °F - 44.6 °F 67% 30.12 in 6.2 mi SSW 15.0 mph - N/A   Unknown
1:55 PM 57.2 °F - 46.4 °F 67% 30.12 in 6.2 mi SSW 16.1 mph - N/A   Unknown
2:25 PM 55.4 °F - 44.6 °F 67% 30.12 in 6.2 mi SSW 15.0 mph - N/A   Partly Cloudy
2:55 PM 55.4 °F - 46.4 °F 72% 30.09 in 6.2 mi SSW 13.8 mph - N/A   Scattered Clouds
3:25 PM 55.4 °F - 44.6 °F 67% 30.09 in 6.2 mi South 13.8 mph - N/A   Unknown
3:55 PM 53.6 °F - 44.6 °F 72% 30.09 in 6.2 mi South 12.7 mph - N/A   Mostly Cloudy
4:00 PM 54 °F - 45 °F 63% 30.10 in 25 mi South 13.4 mph - -   Mostly Cloudy
4:25 PM 53.6 °F - 44.6 °F 72% 30.09 in 6.2 mi SSW 12.7 mph - N/A   Mostly Cloudy
4:55 PM 53.6 °F - 44.6 °F 72% 30.06 in 6.2 mi SSW 13.8 mph - N/A   Mostly Cloudy
5:25 PM 53.6 °F - 42.8 °F 67% 30.06 in 6.2 mi SSW 15.0 mph - N/A   Overcast
5:55 PM 51.8 °F - 42.8 °F 71% 30.06 in 6.2 mi South 13.8 mph - N/A   Mostly Cloudy
5:58 PM 53.6 °F - 42.8 °F 67% 30.06 in 6.2 mi South 12.7 mph - N/A   Overcast
6:07 PM 51.8 °F - 42.8 °F 71% 30.06 in 6.2 mi South 13.8 mph - N/A   Overcast
6:25 PM 53.6 °F - 42.8 °F 67% 30.06 in 6.2 mi South 13.8 mph - N/A   Overcast
6:55 PM 51.8 °F - 42.8 °F 71% 30.06 in 6.2 mi SSW 15.0 mph - N/A   Overcast
7:25 PM 51.8 °F - 42.8 °F 71% 30.06 in 6.2 mi SSW 12.7 mph - N/A   Overcast
7:55 PM 53.6 °F - 44.6 °F 72% 30.06 in 6.2 mi SSW 13.8 mph - N/A   Overcast
8:25 PM 53.6 °F - 44.6 °F 72% 30.04 in 6.2 mi SSW 15.0 mph - N/A   Overcast
8:55 PM 53.6 °F - 44.6 °F 72% 30.04 in 6.2 mi SSW 16.1 mph - N/A   Overcast
9:13 PM 53.6 °F - 44.6 °F 72% 30.04 in 6.2 mi SSW 17.3 mph - N/A   Overcast
9:25 PM 51.8 °F - 44.6 °F 76% 30.04 in 6.2 mi SSW 16.1 mph - N/A   Overcast
9:55 PM 53.6 °F - 44.6 °F 72% 30.04 in 6.2 mi SW 16.1 mph - N/A   Mostly Cloudy
10:09 PM 51.8 °F - 44.6 °F 76% 30.04 in 6.2 mi SW 15.0 mph - N/A   Mostly Cloudy
10:25 PM 51.8 °F - 46.4 °F 82% 30.04 in 6.2 mi SW 16.1 mph - N/A   Mostly Cloudy
10:55 PM 51.8 °F - 46.4 °F 82% 30.04 in 6.2 mi SW 16.1 mph - N/A   Overcast
11:25 PM 51.8 °F - 46.4 °F 82% 30.04 in 6.2 mi SW 16.1 mph - N/A   Mostly Cloudy
11:55 PM 51.8 °F - 46.4 °F 82% 30.04 in 6.2 mi SW 16.1 mph - N/A   Mostly Cloudy